Location: Unspecified
(0.0000°N, 0.0000°E)
Time: 07:26:30
(UTC+00:00)

STARLINK-2708 - Pass Details

Date: 12 June 2021
Orbit: 349 x 350 km, 53.0° (Epoch: 20 June)

Event Time Altitude Azimuth Distance (km) Brightness Sun altitude
Exits shadow 04:33:34 - 152° (SSE) 1,422 5.8 -19.8°
Reaches altitude 10° 04:34:26 10° 136° (SE) 1,304 5.8 -19.6°
Maximum altitude 04:35:01 10° 125° (SE) 1,279 5.9 -19.4°
Drops below altitude 10° 04:35:36 10° 113° (ESE) 1,303 6.1 -19.3°
Sets 04:39:02 0° 69° (ENE) 2,139 8.3 -18.5°
